VA3PPY Weather Reports


Display with metric or nautical units.
time (UTC)temp
F
wind
direction
speed
MPH
gust
MPH
rain 1hr
in
rain 24hr
in
rain mn
in
humidity
%
barometer
mb
20260510051557 44 338 3.0 10.0 0.00 0.16 0.00 78 1009.7
20260510050053 44 280 4.0 12.0 0.00 0.16 0.00 78 1009.4
20260510044627 44 1 2.0 8.0 0.00 0.16 0.00 78 1009.2
20260510043053 44 15 3.0 10.0 0.00 0.16 0.00 77 1008.9
20260510041554 45 24 2.0 13.0 0.00 0.16 0.00 75 1008.8
20260510040054 46 24 2.0 8.0 0.00 0.16 0.00 74 1008.6
20260510034553 47 49 2.0 7.0 0.00 0.16 0.16 80 1008.0
20260510033059 47 359 1.0 8.0 0.00 0.16 0.16 80 1007.9
20260510031557 47 4 0.0 6.0 0.00 0.16 0.16 82 1007.2
20260510030053 47 326 1.0 6.0 0.00 0.16 0.16 82 1007.7
20260510024554 48 300 2.0 5.0 0.00 0.16 0.16 82 1007.6
20260510023054 48 1 0.0 2.0 0.00 0.16 0.16 82 1006.4
20260510021554 48 1 0.0 3.0 0.00 0.16 0.16 79 1006.4
20260510020054 48 1 0.0 4.0 0.00 0.16 0.16 80 1006.1
20260510014554 48 11 0.0 6.0 0.00 0.16 0.16 80 1005.7
20260510013054 48 13 2.0 4.0 0.00 0.16 0.16 78 1005.3
20260510011558 48 12 1.0 9.0 0.00 0.16 0.16 77 1005.2
20260510010128 50 360 2.0 5.0 0.00 0.16 0.16 73 1004.7
20260510004554 52 330 0.0 5.0 0.00 0.16 0.16 69 1004.3
20260510003057 53 325 2.0 6.0 0.00 0.16 0.16 68 1004.1
20260510001558 53 350 1.0 3.0 0.00 0.16 0.16 70 1003.6
20260510000056 54 350 0.0 0.0 0.00 0.16 0.16 68 1003.2
20260509234623 54 350 0.0 0.0 0.00 0.16 0.16 69 1002.9
20260509233055 53 350 0.0 0.0 0.00 0.16 0.16 70 1002.5
20260509231555 53 323 0.0 7.0 0.00 0.16 0.16 69 1002.3
20260509230055 57 248 1.0 4.0 0.00 0.16 0.16 64 1001.8
20260509224554 56 248 1.0 4.0 0.00 0.16 0.16 65 1001.6
20260509223055 56 249 1.0 4.0 0.00 0.16 0.16 67 1001.4
20260509221555 59 249 1.0 6.0 0.00 0.16 0.16 61 1001.2
20260509220106 60 269 2.0 6.0 0.00 0.16 0.16 60 1000.9
20260509214555 62 255 2.0 6.0 0.00 0.16 0.16 56 1000.5
20260509213055 63 269 2.0 6.0 0.00 0.16 0.16 58 1000.4
20260509211557 63 234 3.0 7.0 0.00 0.16 0.16 58 1000.5
20260509210057 63 292 3.0 7.0 0.00 0.16 0.16 63 1000.6
20260509204601 63 222 1.0 6.0 0.00 0.16 0.16 70 1000.6
20260509203138 60 211 1.0 4.0 0.00 0.16 0.16 82 1000.5
20260509201612 58 171 2.0 8.0 0.14 0.16 0.16 85 1000.5
20260509194556 53 179 0.0 4.0 0.15 0.16 0.16 89 1001.0
20260509193119 52 231 0.0 5.0 0.15 0.16 0.16 84 1000.9
20260509191614 62 203 5.0 21.0 0.01 0.02 0.02 64 1000.7
20260509190055 63 192 6.0 16.0 0.00 0.01 0.01 60 999.6
20260509184600 64 123 8.0 23.0 0.00 0.01 0.01 58 999.9
20260509183056 66 175 5.0 21.0 0.00 0.01 0.01 54 999.9
20260509181601 65 165 6.0 17.0 0.00 0.01 0.01 57 1000.1
20260509180105 65 188 5.0 16.0 0.00 0.01 0.01 62 1000.0
20260509174557 65 241 7.0 18.0 0.00 0.01 0.01 56 1000.1
20260509173103 63 164 4.0 22.0 0.00 0.01 0.01 64 1000.5
20260509171556 64 145 10.0 25.0 0.00 0.01 0.01 58 1000.8
20260509170059 64 142 9.0 19.0 0.00 0.01 0.01 61 1000.6
20260509164607 64 167 5.0 17.0 0.00 0.01 0.01 61 1000.3
20260509163057 63 110 6.0 17.0 0.00 0.01 0.01 67 1000.8
20260509161559 63 195 4.0 13.0 0.00 0.01 0.01 70 1001.4
20260509160056 63 167 6.0 15.0 0.00 0.01 0.01 69 1001.6
20260509154556 60 147 3.0 12.0 0.00 0.01 0.01 76 1001.9
20260509153056 59 155 3.0 11.0 0.00 0.01 0.01 78 1002.4
20260509151607 58 157 3.0 11.0 0.00 0.01 0.01 78 1003.1
20260509150056 58 227 4.0 15.0 0.00 0.01 0.01 78 1003.7
20260509144556 57 150 3.0 10.0 0.01 0.01 0.01 79 1003.8
20260509143059 58 202 7.0 14.0 0.01 0.01 0.01 79 1003.3
20260509141557 57 206 4.0 13.0 0.01 0.01 0.01 82 1003.1
20260509140057 56 131 4.0 14.0 0.01 0.01 0.01 83 1003.5
20260509134556 55 158 5.0 11.0 0.00 0.00 0.00 87 1003.2
20260509133103 54 162 3.0 8.0 0.00 0.00 0.00 90 1003.2
20260509131602 53 86 3.0 9.0 0.00 0.00 0.00 92 1003.6
20260509124557 51 136 2.0 7.0 0.00 0.00 0.00 95 1003.8
20260509123057 51 165 0.0 7.0 0.00 0.00 0.00 95 1004.0
20260509121557 50 155 1.0 10.0 0.00 0.00 0.00 95 1004.4
20260509120101 49 195 4.0 11.0 0.00 0.00 0.00 95 1004.5
20260509114557 49 173 3.0 9.0 0.00 0.00 0.00 95 1004.3
20260509113106 49 168 2.0 10.0 0.00 0.00 0.00 95 1004.4
20260509111604 49 151 1.0 6.0 0.00 0.00 0.00 95 1004.2
20260509110057 48 164 1.0 5.0 0.00 0.00 0.00 95 1004.0
20260509104558 48 147 3.0 9.0 0.00 0.00 0.00 95 1004.2
20260509103104 48 166 2.0 7.0 0.00 0.00 0.00 95 1004.2
20260509101558 48 173 2.0 5.0 0.00 0.00 0.00 95 1004.2
20260509100058 48 152 1.0 10.0 0.00 0.00 0.00 95 1004.2
20260509094558 48 174 2.0 8.0 0.00 0.00 0.00 95 1004.5
20260509093058 48 148 1.0 5.0 0.00 0.00 0.00 95 1004.6
20260509091607 48 182 1.0 8.0 0.00 0.00 0.00 95 1004.7
20260509090058 47 110 0.0 3.0 0.00 0.00 0.00 94 1004.6
20260509084558 47 110 0.0 3.0 0.00 0.00 0.00 94 1004.6
20260509083058 46 110 0.0 2.0 0.00 0.00 0.00 94 1004.7
20260509081603 45 110 0.0 3.0 0.00 0.00 0.00 94 1004.6
20260509080106 45 110 0.0 0.0 0.00 0.00 0.00 93 1004.8
20260509074558 45 110 0.0 2.0 0.00 0.00 0.00 93 1004.8
20260509073058 45 110 0.0 2.0 0.00 0.00 0.00 92 1004.8
20260509071600 45 110 0.0 2.0 0.00 0.00 0.00 92 1005.0
20260509070105 46 110 0.0 0.0 0.00 0.00 0.00 91 1005.2
20260509064558 46 110 0.0 2.0 0.00 0.00 0.00 91 1005.4
20260509063059 46 110 0.0 2.0 0.00 0.00 0.00 90 1005.4
20260509061615 46 110 0.0 2.0 0.00 0.00 0.00 90 1005.6
20260509060138 46 110 0.0 1.0 0.00 0.00 0.00 89 1005.9
20260509054603 46 110 0.0 3.0 0.00 0.01 0.00 88 1005.9
20260509053059 47 110 0.0 4.0 0.00 0.01 0.00 87 1006.1